PST,Max TemperatureF,Mean TemperatureF,Min TemperatureF,Max Dew PointF,MeanDew PointF,Min DewpointF,Max Humidity, Mean Humidity, Min Humidity, Max Sea Level PressureIn, Mean Sea Level PressureIn, Min Sea Level PressureIn, Max VisibilityMiles, Mean VisibilityMiles, Min VisibilityMiles, Max Wind SpeedMPH, Mean Wind SpeedMPH, Max Gust SpeedMPH,PrecipitationIn, CloudCover, Events, WindDirDegrees
2013-1-1,23,17,10,20,18,16,100,91,81,30.64,30.57,30.38,10,7,0,10,3,13,T,8,Fog,205
2013-1-2,26,18,10,21,18,8,92,83,74,30.63,30.57,30.40,10,9,7,8,3,9,0.00,6,Fog,23
2013-1-3,24,15,6,18,10,5,100,87,74,30.50,30.43,30.34,10,7,0,9,2,10,0.00,3,Fog,91
2013-1-4,27,22,16,23,20,15,100,91,81,30.45,30.41,30.30,10,9,7,9,3,10,0.00,8,,32
2013-1-5,33,28,23,27,24,21,100,89,78,30.41,30.29,30.15,10,8,2,14,6,15,0.02,8,Snow,75
2013-1-6,30,28,25,29,25,3,100,69,37,30.35,30.15,30.05,10,4,0,14,5,15,0.13,8,Snow,195
2013-1-7,37,34,30,36,32,28,100,91,82,30.07,29.92,29.78,10,3,0,33,16,39,0.61,7,Fog-Snow,185
2013-1-8,42,37,32,37,33,29,100,90,79,30.14,30.01,29.82,10,5,0,29,12,37,0.10,8,Rain-Snow,188
2013-1-9,43,38,32,35,33,29,96,81,65,29.85,29.73,29.61,10,10,10,26,17,36,0.00,7,,186
2013-1-10,32,29,25,28,25,23,100,92,84,29.91,29.84,29.75,10,6,1,16,7,20,0.11,7,Snow,262
2013-1-11,31,21,11,25,15,9,100,75,49,30.27,30.14,29.86,10,8,0,14,6,16,0.01,5,Fog,92
2013-1-12,21,13,5,19,14,2,100,67,33,30.37,30.29,30.17,10,6,0,13,5,15,T,8,Snow,248
2013-1-13,22,18,14,15,12,10,92,83,73,30.49,30.41,30.25,10,7,2,8,2,9,0.01,7,Snow,153
2013-1-14,24,20,16,20,17,13,92,83,74,30.49,30.39,30.26,10,6,1,9,4,13,0.06,8,Snow,149
2013-1-15,29,21,12,27,19,9,96,90,84,30.64,30.56,30.40,10,7,0,10,1,13,0.00,7,Fog,132
2013-1-16,29,21,12,25,20,10,100,92,84,30.63,30.56,30.48,7,1,0,6,1,7,T,5,Fog,47
2013-1-17,25,19,12,21,17,9,96,90,84,30.62,30.50,30.34,7,1,0,8,2,9,T,7,Fog,255
2013-1-18,27,19,10,22,15,9,92,88,84,30.41,30.33,30.23,8,2,0,6,1,8,0.00,6,Fog,69
2013-1-19,30,21,11,24,16,8,92,85,78,30.50,30.44,30.31,10,6,0,7,1,8,0.00,6,Fog,51
2013-1-20,31,20,9,23,14,6,96,84,72,30.56,30.47,30.35,10,2,0,6,0,6,T,4,Fog-Snow,243
2013-1-21,26,15,4,20,12,2,92,86,80,30.44,30.38,30.23,3,1,0,7,1,8,T,6,Fog,236
2013-1-22,24,15,6,20,15,3,92,84,76,30.38,30.28,30.11,1,0,0,7,3,8,0.00,8,Fog,17
2013-1-23,34,27,20,32,24,17,92,88,84,30.19,30.03,29.88,10,5,0,25,6,29,0.12,8,Rain-Snow,56
2013-1-24,30,26,22,28,25,20,96,91,85,30.29,30.20,30.11,7,3,0,14,5,16,0.02,8,Fog-Rain-Snow,47
2013-1-25,39,35,30,37,33,28,100,93,85,30.17,30.03,29.91,10,3,0,10,3,14,0.26,8,Fog-Rain-Snow,153
2013-1-26,36,33,30,36,31,28,100,91,82,29.98,29.92,29.86,10,4,0,22,8,25,T,8,Fog-Snow,206
2013-1-27,31,29,26,29,26,24,100,96,92,30.03,29.97,29.90,10,3,0,13,7,76,0.01,8,Snow,202
2013-1-28,31,29,27,29,27,25,92,92,92,29.94,29.90,29.84,10,3,0,16,8,21,0.05,8,Snow,221
2013-1-29,35,30,25,33,28,25,100,85,70,30.21,30.10,29.89,10,4,0,13,4,15,0.12,8,Fog-Rain-Snow,215
2013-1-30,43,37,31,34,32,28,100,85,70,30.26,30.18,30.07,10,8,1,15,8,,0.00,7,Fog,215
2013-1-31,40,37,34,36,35,32,100,93,85,30.29,30.24,30.19,10,5,0,13,7,16,T,7,Fog-Rain,199